Stations météo

réclame
Mon MeteoGroup
Orense, Espagne (8048): Température de l'air & dewpoint: 22.05.2018 12:00:00 - 28.05.2018 12:00:00 (CEST)Orense, Espagne (8048): Vitesse du vent: 22.05.2018 12:00:00 - 28.05.2018 12:00:00 (CEST)Orense, Espagne (8048): Direction du vent: 22.05.2018 12:00:00 - 28.05.2018 12:00:00 (CEST)Orense, Espagne (8048): reduced air pressure: 22.05.2018 12:00:00 - 28.05.2018 12:00:00 (CEST)Orense, Espagne (8048): visibility: 22.05.2018 12:00:00 - 28.05.2018 12:00:00 (CEST)Orense, Espagne (8048): Quantités de précipitations: 22.05.2018 12:00:00 - 28.05.2018 12:00:00 (CEST)
Date & Time tt [°C] td [°C] ff [km/h] ff [knt] dd ppp [hPa] vv [km] rr [mm]
28.05.2018 12:00:00 - - - - - - - -
28.05.2018 11:00:00 15,4 10,4 - - - 1016,6 18 -
28.05.2018 10:00:00 - - - - - - - -
28.05.2018 09:00:00 - - - - - - - -
28.05.2018 08:00:00 10,7 9,3 - - - 1017,0 15 -
28.05.2018 07:00:00 - - - - - - - -
28.05.2018 06:00:00 - - - - - - - -
28.05.2018 05:00:00 - - - - - - - -
28.05.2018 04:00:00 - - - - - - - -
28.05.2018 03:00:00 - - - - - - - -
28.05.2018 02:00:00 - - - - - - - -
28.05.2018 01:00:00 - - - - - - - -
28.05.2018 00:00:00 - - - - - - - -
27.05.2018 23:00:00 - - - - - - - -
27.05.2018 22:00:00 - - - - - - - -
27.05.2018 21:00:00 - - - - - - - -
27.05.2018 20:00:00 - - - - - - - -
27.05.2018 19:00:00 - - - - - - - -
27.05.2018 18:00:00 - - - - - - - -
27.05.2018 17:00:00 - - - - - - - -
27.05.2018 16:00:00 - - - - - - - -
27.05.2018 15:00:00 - - - - - - - -
27.05.2018 14:00:00 - - - - - - - -
27.05.2018 13:00:00 - - - - - - - -
27.05.2018 12:00:00 - - - - - - - -
27.05.2018 11:00:00 - - - - - - - -
27.05.2018 10:00:00 - - - - - - - -
27.05.2018 09:00:00 - - - - - - - -
27.05.2018 08:00:00 - - - - - - - -
27.05.2018 07:00:00 - - - - - - - -
27.05.2018 06:00:00 - - - - - - - -
27.05.2018 05:00:00 - - - - - - - -
27.05.2018 04:00:00 - - - - - - - -
27.05.2018 03:00:00 - - - - - - - -
27.05.2018 02:00:00 - - - - - - - -
27.05.2018 01:00:00 - - - - - - - -
27.05.2018 00:00:00 - - - - - - - -
26.05.2018 23:00:00 - - - - - - - -
26.05.2018 22:00:00 - - - - - - - -
26.05.2018 21:00:00 - - - - - - - -
26.05.2018 20:00:00 - - - - - - - -
26.05.2018 19:00:00 - - - - - - - -
26.05.2018 18:00:00 - - - - - - - -
26.05.2018 17:00:00 - - - - - - - -
26.05.2018 16:00:00 - - - - - - - -
26.05.2018 15:00:00 - - - - - - - -
26.05.2018 14:00:00 - - - - - - - -
26.05.2018 13:00:00 - - - - - - - -
26.05.2018 12:00:00 - - - - - - - -
26.05.2018 11:00:00 - - - - - - - -
26.05.2018 10:00:00 - - - - - - - -
26.05.2018 09:00:00 - - - - - - - -
26.05.2018 08:00:00 - - - - - - - -
26.05.2018 07:00:00 - - - - - - - -
26.05.2018 06:00:00 - - - - - - - -
26.05.2018 05:00:00 - - - - - - - -
26.05.2018 04:00:00 - - - - - - - -
26.05.2018 03:00:00 - - - - - - - -
26.05.2018 02:00:00 - - - - - - - -
26.05.2018 01:00:00 15,2 13,4 - - - 1013,0 - 0,0
26.05.2018 00:00:00 15,2 13,6 4 2 NNW 1013,2 20 -
25.05.2018 23:00:00 15,5 13,9 - - - 1013,2 - -
25.05.2018 22:00:00 15,9 14,3 - - - 1012,6 - 2,0
25.05.2018 21:00:00 16,5 15,0 4 2 W 1012,1 - -
25.05.2018 20:00:00 17,0 15,3 2 1 ENE 1011,8 - -
25.05.2018 19:00:00 - - - - - - - 0,2
25.05.2018 18:00:00 16,4 15,1 - - - 1011,8 - 0,0
25.05.2018 17:00:00 16,3 14,7 2 1 SE 1012,2 4,2 -
25.05.2018 16:00:00 - - - - - - - 1,0
25.05.2018 15:00:00 21,1 14,7 4 2 NNE 1010,8 17 0,0
25.05.2018 14:00:00 21,2 14,1 4 2 N 1011,2 20 -
25.05.2018 13:00:00 20,5 13,9 4 2 NNE 1011,8 20 0,0
25.05.2018 12:00:00 19,1 13,5 4 2 N 1012,2 18 0,0
25.05.2018 11:00:00 18,3 13,8 5 3 NE 1012,5 16 -
25.05.2018 10:00:00 17,8 13,7 4 2 ENE 1012,3 16 0,0
25.05.2018 09:00:00 17,5 13,8 4 2 NW 1011,9 16 0,0
25.05.2018 08:00:00 16,1 13,8 2 1 NNE 1011,8 15 -
25.05.2018 07:00:00 16,1 13,6 2 1 ENE 1011,3 14 0,0
25.05.2018 06:00:00 16,3 13,6 2 1 N 1011,4 17 0,0
25.05.2018 05:00:00 16,6 14,1 2 1 ENE 1011,2 14 -
25.05.2018 04:00:00 16,7 14,2 4 2 SW 1011,4 13 0,2
25.05.2018 03:00:00 17,0 14,5 5 3 NNW 1011,2 11 0,2
25.05.2018 02:00:00 17,6 14,5 4 2 NNE 1012,6 6 -
25.05.2018 01:00:00 18,0 13,7 5 3 ENE 1012,8 19 0,0
25.05.2018 00:00:00 18,2 13,9 2 1 NNE 1013,2 17 0,0
24.05.2018 23:00:00 18,6 13,7 4 2 N 1012,5 20 -
24.05.2018 22:00:00 18,9 13,5 2 1 N 1012,1 20 0,0
24.05.2018 21:00:00 19,9 13,8 4 2 NE 1012,5 20 0,0
24.05.2018 20:00:00 20,7 15,7 4 2 ENE 1011,9 15 -
24.05.2018 19:00:00 23,3 11,7 5 3 SSE 1012,0 20 0,0
24.05.2018 18:00:00 24,5 11,4 9 5 SE 1011,9 20 0,0
24.05.2018 17:00:00 25,4 12,3 13 7 S 1012,0 20 -
24.05.2018 16:00:00 26,1 11,4 13 7 SSE 1011,8 20 0,0
24.05.2018 15:00:00 26,7 12,4 15 8 S 1011,9 20 0,0
24.05.2018 14:00:00 25,9 14,0 5 3 SW 1012,2 20 -
24.05.2018 13:00:00 23,8 12,4 4 2 NNW 1013,0 20 0,0
24.05.2018 12:00:00 20,9 13,6 5 3 WNW 1013,6 18 0,0
24.05.2018 11:00:00 18,3 13,8 4 2 SW 1014,2 13 -
24.05.2018 10:00:00 15,8 13,5 4 2 S 1014,7 8 0,0
24.05.2018 09:00:00 14,7 13,1 2 1 S 1014,9 6 0,0
24.05.2018 08:00:00 14,0 12,6 2 1 S 1015,4 7 -
24.05.2018 07:00:00 13,8 11,8 2 1 WSW 1014,9 14 0,0
24.05.2018 06:00:00 13,5 11,7 4 2 SSE 1015,1 14 0,0
24.05.2018 05:00:00 13,5 11,7 2 1 S 1015,2 14 -
24.05.2018 04:00:00 13,6 11,8 4 2 W 1015,5 13 0,0
24.05.2018 03:00:00 14,1 12,3 2 1 SE 1015,7 11 0,0
24.05.2018 02:00:00 - - - - - - - -
24.05.2018 01:00:00 16,0 13,3 4 2 W 1015,6 14 0,0
24.05.2018 00:00:00 17,1 13,8 4 2 S 1015,7 12 0,0
23.05.2018 23:00:00 18,7 14,6 2 1 E 1015,5 18 -
23.05.2018 22:00:00 20,2 14,8 2 1 SSE 1015,0 20 0,0
23.05.2018 21:00:00 22,2 14,3 8 4 ENE 1014,7 19 0,0
23.05.2018 20:00:00 24,3 12,6 4 2 WNW 1013,3 20 -
23.05.2018 19:00:00 25,7 13,5 9 5 W 1012,4 20 0,0
23.05.2018 18:00:00 26,8 12,8 4 2 WNW 1011,9 20 0,0
23.05.2018 17:00:00 23,5 15,5 5 3 S 1012,6 19 -
23.05.2018 16:00:00 28,4 12,3 9 5 W 1012,2 20 0,0
23.05.2018 15:00:00 27,6 10,3 8 4 WSW 1012,8 20 0,0
23.05.2018 14:00:00 25,3 12,2 4 2 N 1013,5 20 -
23.05.2018 13:00:00 23,3 13,7 4 2 W 1014,3 20 0,0
23.05.2018 12:00:00 21,1 12,5 4 2 NNE 1014,9 20 0,0
23.05.2018 11:00:00 18,9 11,9 4 2 NNW 1015,2 20 -
23.05.2018 10:00:00 16,6 11,1 4 2 SW 1015,4 17 0,0
23.05.2018 09:00:00 14,5 10,9 4 2 SSE 1015,6 17 0,0
23.05.2018 08:00:00 13,3 10,5 4 2 WSW 1015,4 18 -
23.05.2018 07:00:00 12,8 10,0 2 1 W 1015,2 16 0,0
23.05.2018 06:00:00 13,1 9,9 2 1 S 1014,8 17 0,0
23.05.2018 05:00:00 13,3 9,9 2 1 SSE 1014,8 19 -
23.05.2018 04:00:00 13,7 9,7 2 1 WSW 1014,7 19 0,0
23.05.2018 03:00:00 14,8 10,2 2 1 SW 1015,0 19 0,0
23.05.2018 02:00:00 - - - - - - - -
23.05.2018 01:00:00 18,0 10,4 4 2 W 1014,8 20 0,0
23.05.2018 00:00:00 20,7 11,3 4 2 W 1014,3 20 0,0
22.05.2018 23:00:00 22,8 8,1 4 2 NNW 1013,6 20 -
22.05.2018 22:00:00 24,4 8,8 4 2 N 1012,5 20 0,0
22.05.2018 21:00:00 26,1 12,2 5 3 WNW 1011,5 20 0,0
22.05.2018 20:00:00 28,1 11,6 5 3 W 1010,9 20 -
22.05.2018 19:00:00 27,1 11,6 5 3 SW 1010,9 20 0,0
22.05.2018 18:00:00 28,3 7,5 15 8 ENE 1010,4 20 0,0
22.05.2018 17:00:00 29,8 8,8 4 2 NNE 1010,5 20 -
22.05.2018 16:00:00 29,0 4,5 5 3 NNE 1011,0 20 0,0
22.05.2018 15:00:00 27,9 9,7 4 2 WNW 1011,3 20 0,0
22.05.2018 14:00:00 25,5 10,9 8 4 WNW 1012,1 20 -
22.05.2018 13:00:00 22,8 12,7 4 2 NNW 1012,8 20 0,0
22.05.2018 12:00:00 19,8 11,8 4 2 NNE 1013,5 18 0,0

tt = Température de l'air
td = dewpoint
ff = Vitesse du vent
dd = Direction du vent
ppp = reduced air pressure
vv = visibility
rr = Quantités de précipitations

stations d'obs. à proximité